This demonstration page uses our WeatherBlox Daily Observations layout. Learn more.

Left ArrowRight Arrow

36.17497, -115.13722

Hourly Observations for January 15, 2016

Temp ( °F °C ) Dew Point ( °F °C ) Humidity (%) Winds ( mph kmh ) Pressure ( in mb ) Visibility ( mi km ) Precip ( " mm )
12:53 am 00:53 Clear 39 3.9 27 -2.8 62 62 NW 3 6 29.96 1014 10 16.0934 0 0
1:53 am 01:53 Clear 37 2.8 27 -2.8 67 67 N 7 11 29.96 1015 10 16.0934 0 0
2:53 am 02:53 Clear 37 2.8 27 -2.8 67 67 Calm 29.93 1014 10 16.0934 0 0
3:53 am 03:53 Clear 37 2.8 26 -3.3 65 65 Calm 29.91 1013 10 16.0934 0 0
4:53 am 04:53 Clear 37 2.8 26 -3.3 65 65 NNW 6 9 29.91 1013 10 16.0934 0 0
5:53 am 05:53 Clear 36 2.2 26 -3.3 67 67 NW 5 7 29.91 1013 10 16.0934 0 0
6:53 am 06:53 Sunny 36 2.2 26 -3.3 67 67 N 5 7 29.92 1013 10 16.0934 0 0
7:53 am 07:53 Sunny 40 4.4 27 -2.8 60 60 NNW 6 9 29.94 1014 10 16.0934 0 0
8:53 am 08:53 Sunny 43 6.1 27 -2.8 53 53 NE 14 22 30.03 1017 10 16.0934 0 0
9:53 am 09:53 Mostly Cloudy 48 8.9 29 -1.7 48 48 NNE 8 13 30.05 1018 10 16.0934 0 0
10:53 am 10:53 Sunny 53 11.7 30 -1.1 41 41 NNW 14 22 30.02 1017 10 16.0934 0 0
11:53 am 11:53 Sunny 56 13.3 30 -1.1 37 37 NNW 17 28 29.99 1016 10 16.0934 0 0
12:53 pm 12:53 Sunny 58 14.4 29 -1.7 33 33 N 18 30 30.01 1016 10 16.0934 0 0
1:53 pm 13:53 Sunny 59 15 29 -1.7 32 32 N 15 24 30.02 1017 10 16.0934 0 0
2:53 pm 14:53 Sunny 58 14.4 27 -2.8 31 31 N 15 24 30.03 1017 10 16.0934 0 0
3:53 pm 15:53 Sunny 58 14.4 27 -2.8 31 31 NNW 16 26 30.05 1018 10 16.0934 0 0
4:53 pm 16:53 Clear 56 13.3 26 -3.3 32 32 NNW 15 24 30.06 1018 10 16.0934 0 0
5:53 pm 17:53 Clear 54 12.2 26 -3.3 34 34 NW 10 17 30.08 1019 10 16.0934 0 0
6:53 pm 18:53 Clear 52 11.1 25 -3.9 35 35 NNW 10 17 30.1 1019 10 16.0934 0 0
7:53 pm 19:53 Clear 49 9.4 26 -3.3 41 41 N 7 11 30.12 1020 10 16.0934 0 0
8:53 pm 20:53 Clear 47 8.3 26 -3.3 44 44 N 9 15 30.15 1021 10 16.0934 0 0
9:53 pm 21:53 Clear 47 8.3 26 -3.3 44 44 N 10 17 30.17 1022 10 16.0934 0 0
10:53 pm 22:53 Clear 47 8.3 27 -2.8 46 46 NNE 9 15 30.16 1022 10 16.0934 0 0
11:53 pm 23:53 Clear 46 7.8 27 -2.8 47 47 S 3 6 30.18 1022 10 16.0934 0 0

Powered by AerisWeather